Worcester, MA

11:58 AM EDT on August 19, 2017 (GMT -0400)
Worcester Regional

Weather History for KORH - March, 2013

Change the Weather History Date:

Wednesday, March 13, 2013

  Actual Average Record
Temperature  
Mean Temperature 39 °F 34 °F  
Max Temperature 46 °F 42 °F 70 °F (1946)
Min Temperature 32 °F 25 °F 4 °F (1941)
Degree Days  
Heating Degree Days 26 31  
Month to date heating degree days 386 432  
Since 1 July heating degree days 4823 5269  
Cooling Degree Days 0 0  
Month to date cooling degree days 0 0  
Year to date cooling degree days 0 0  
Moisture  
Dew Point 26 °F    
Average Humidity 64    
Maximum Humidity 92    
Minimum Humidity 36    
Precipitation  
Precipitation 0.00 in 0.12 in 2.09 in (1953)
Month to date precipitation 2.00 1.64  
Year to date precipitation 8.88 8.36  
Sea Level Pressure  
Sea Level Pressure 29.77 in    
Wind  
Wind Speed 12 mph (WNW)    
Max Wind Speed 21 mph    
Max Gust Speed 29 mph    
Visibility 10 miles    
Events      
T = Trace of Precipitation, MM = Missing Value Source: NWS Daily Summary

Daily Weather History Graph

Daily Weather History Graph

Search for Another Location

Airport or City:

Trip Planner

Search our weather history database for the weather conditions in past years. The results will help you decide how hot, cold, wet, or windy it might be!

Date:

Astronomy

Mar. 13, 2013 Rise Set
Actual Time 7:02 AM EDT 6:51 PM EDT
Civil Twilight 6:34 AM EDT 7:19 PM EDT
Nautical Twilight 6:02 AM EDT 7:52 PM EDT
Astronomical Twilight 5:29 AM EDT 8:25 PM EDT
Moon 7:37 AM EDT (3/13) 9:09 PM EDT (3/13)
Length of Visible Light 12h 45m
Length of Day
11h 49m
Waxing Crescent, 4% of the Moon is Illuminated
Mar 13
Waxing Crescent
Mar 19
First Quarter
Mar 27
Full
Apr 3
Last Quarter
Apr 10
New

Hourly Weather History & Observations

Time (EDT) Temp. Windchill Dew Point Humidity Pressure Visibility Wind Dir Wind Speed Gust Speed Precip Events Conditions
12:44 AM 39.9 °F 33.4 °F 37.0 °F 89% 29.75 in 10.0 mi West 10.4 mph - N/A   Scattered Clouds
12:54 AM 39.0 °F 31.0 °F 37.0 °F 93% 29.78 in 10.0 mi WNW 13.8 mph - N/A   Partly Cloudy
1:54 AM 37.9 °F 30.0 °F 35.1 °F 89% 29.77 in 10.0 mi WNW 12.7 mph - N/A   Clear
2:54 AM 37.0 °F 28.9 °F 34.0 °F 89% 29.77 in 10.0 mi West 12.7 mph - N/A   Scattered Clouds
3:54 AM 36.0 °F 28.0 °F 32.0 °F 86% 29.77 in 10.0 mi WNW 11.5 mph - N/A   Mostly Cloudy
4:22 AM 35.1 °F 26.9 °F 30.9 °F 85% 29.74 in 10.0 mi WNW 11.5 mph - N/A   Scattered Clouds
4:54 AM 34.0 °F 25.5 °F 30.9 °F 89% 29.78 in 10.0 mi WNW 11.5 mph - N/A   Clear
5:54 AM 33.1 °F 24.4 °F 28.9 °F 85% 29.78 in 10.0 mi WNW 11.5 mph - N/A   Clear
6:54 AM 33.1 °F 24.9 °F 28.0 °F 82% 29.78 in 10.0 mi WNW 10.4 mph - N/A   Clear
7:54 AM 34.0 °F 31.0 °F 28.0 °F 79% 29.77 in 10.0 mi Variable 3.5 mph 17.3 mph N/A   Clear
8:54 AM 36.0 °F 27.5 °F 28.0 °F 73% 29.77 in 10.0 mi WNW 12.7 mph - N/A   Clear
9:54 AM 37.9 °F 29.6 °F 28.0 °F 68% 29.77 in 10.0 mi WNW 13.8 mph - N/A   Clear
10:54 AM 41.0 °F 34.3 °F 28.0 °F 60% 29.77 in 10.0 mi NW 11.5 mph 19.6 mph N/A   Partly Cloudy
11:54 AM 42.1 °F 34.5 °F 28.0 °F 58% 29.77 in 10.0 mi West 15.0 mph - N/A   Partly Cloudy
12:54 PM 42.1 °F 34.5 °F 26.1 °F 53% 29.77 in 10.0 mi NW 15.0 mph 21.9 mph N/A   Partly Cloudy
1:54 PM 44.1 °F 39.0 °F 25.0 °F 47% 29.75 in 10.0 mi West 9.2 mph 19.6 mph N/A   Clear
2:54 PM 45.0 °F 38.5 °F 23.0 °F 42% 29.73 in 10.0 mi West 13.8 mph 23.0 mph N/A   Clear
3:54 PM 45.0 °F 37.6 °F 21.0 °F 39% 29.73 in 10.0 mi WNW 17.3 mph - N/A   Clear
4:54 PM 43.0 °F 34.5 °F 19.0 °F 38% 29.73 in 10.0 mi WNW 19.6 mph 26.5 mph N/A   Clear
5:54 PM 42.1 °F 34.5 °F 18.0 °F 38% 29.75 in 10.0 mi West 15.0 mph 26.5 mph N/A   Clear
6:54 PM 39.0 °F 31.8 °F 17.1 °F 41% 29.77 in 10.0 mi NW 11.5 mph - N/A   Clear
7:54 PM 37.0 °F 32.4 °F 18.0 °F 46% 29.78 in 10.0 mi WNW 5.8 mph - N/A   Clear
8:54 PM 35.1 °F 29.3 °F 17.1 °F 48% 29.79 in 10.0 mi West 6.9 mph - N/A   Clear
9:54 PM 33.1 °F 26.9 °F 17.1 °F 52% 29.79 in 10.0 mi WNW 6.9 mph - N/A   Partly Cloudy
10:54 PM 33.1 °F 25.5 °F 17.1 °F 52% 29.79 in 10.0 mi WNW 9.2 mph - N/A   Clear
11:54 PM 33.1 °F 25.5 °F 18.0 °F 54% 29.78 in 10.0 mi West 9.2 mph - N/A   Partly Cloudy